Find Starlink 11089

NORAD ID: 59426 Int'l Des: 2024-065 Owner: SPXS Country: US Constellation: starlink operational
LEOCIRCULAR

Current View

Loading 3D Globe...

About Starlink 11089

Starlink 11089 (NORAD 59426) is a starlink constellation satellite (v2 mini d2c) launched Apr 7, 2024 by SPXS of US. It operates in LEO, CIRCULAR orbit with a mass of 960.00 kg.

About Starlink 11089

Description loading...

Upcoming Passes

Passes for default location (London). Set your location on the main map for personalized predictions.

Altitude History

Loading altitude history...

Two-Line Element Set

1 59426U 24065F 26171.40873160 -.00038887 00000-0 -32118-3 0 9993
2 59426 53.1592 307.7255 0001142 82.3772 277.7375 15.69441699127652
Epoch: Jun 20, 2026 • Age: 29 hours

Current Status

Altitude 362.9 km
Velocity 7.70 km/s
Sub-Earth Point 35.85°N, 161.24°W
Launch Date Apr 7, 2024
Age 2.2 years
Type internet

Technical Details

Classification Payload
Mass 960.00 kg
Dry Mass 910.00 kg
Total Mass 960.00 kg
Length 0.30 m
Diameter 4.10 m
Span 29.00 m
Shape Box + pan
Manufacturer SPXS
Bus Type Starlink V2MD
Phase Status In Orbit
Owner/State SPXS/US

Most Searched